Weather Roundup
Issued by NWS Chicago, IL

Home | Current Version | Previous Version | Graphics & Text | Print | Product List | Glossary On
Versions: 1 2 3 4 5 6 7 8 9 10 11 12 13 14 15 16 17 18 19 20 21 22 23 24 25 26 27 28 29 30 31 32 33 34 35 36 37 38 39 40 41 42 43 44 45 46 47 48 49 50
000
NZUS59 KLOT 252008
HRRLOT

CHICAGO AREA WEATHER ROUNDUP
NATIONAL WEATHER SERVICE CHICAGO/ROMEOVILLE IL
300 PM CDT MON MAY 25 2015

NOTE: "FAIR" INDICATES FEW OR NO CLOUDS BELOW 12,000 FEET WITH NO
SIGNIFICANT WEATHER AND/OR OBSTRUCTIONS TO VISIBILITY.

* THESE STATIONS ARE NOT UNDER NWS QUALITY CONTROL. THEY ALSO MAY NOT
  REPORT WEATHER SUCH AS PRECIPITATION OR FOG.

ILZ005-006-012>014-019>023-252100-
NORTHEAST ILLINOIS

CITY           SKY/WX    TMP DP  RH WIND       PRES   REMARKS
OHARE          PTSUNNY   75  61  61 SW20G26   29.90R
MIDWAY         PTSUNNY   78  63  59 SW18G25   29.91R HX  80
AURORA         PTSUNNY   78  61  55 SW18G25   29.91S HX  80
LANSING*       PTSUNNY   77  57  49 SW18G26   29.94R
JOLIET*        PTSUNNY   78  64  61 SW14G21   29.93R HX  80
WAUKEGAN       MOSUNNY   76  61  59 SW10G24   29.86S
DUPAGE AIRPORT PTSUNNY   75  62  64 SW21      29.90S
WHEELING       MOSUNNY   77  60  55 SW14G23   29.90R
KANKAKEE*      PTSUNNY   79  62  57 SW12G22   29.95F HX  80
MORRIS*        PTSUNNY   78  63  60 SW17      29.92R
LEWIS AIRPORT* PTSUNNY   76  61  59 SW20      29.92S
NORTHERLY IS     N/A     75  58  55 W16         N/A
$$

WIZ051-052-058>065-066-070>072-252100-
SOUTHEAST WISCONSIN

CITY           SKY/WX    TMP DP  RH WIND       PRES   REMARKS
MILWAUKEE      MOSUNNY   75  61  61 SW21G28   29.85R
KENOSHA*       PTSUNNY   76  62  62 SW17G25   29.86R
RACINE*        PTSUNNY   77  60  55 W15G26    29.86S
BURLINGTON     MOSUNNY   74  59  59 W14       29.86S
WAUKESHA       PTSUNNY   73  61  64 SW16G23   29.85R
WEST BEND      PTSUNNY   75  61  60 SW20      29.82R
$$

INZ001>003-010>013-019-020-252100-
NORTHWEST INDIANA

CITY           SKY/WX    TMP DP  RH WIND       PRES   REMARKS
GARY*          PTSUNNY   79  59  50 SW22G39   29.94R HX  80
MICHIGAN CITY* NOT AVBL
RENSSELAER*    NOT AVBL
VALPARAISO     PTSUNNY   79  59  50 W20G37    29.94S HX  80
$$

LMZ740>746-252100-
SOUTHERN LAKE MICHIGAN

STATION/POSITION TIME  SKY/WX   TEMP WIND        PRES    VSBY
                                AIR  DIR/SP/G
                 (UTC)          (F)  (DEG/KT/KT) (MB)    (MI)
HARRISON CRIB    1900            72  230/ 22/ 29   N/A
BURNHAM HARBOR   2000            76  200/  5/ 19   N/A
CALUMET HARBOR   1906            74  230/ 13/ 22   N/A
BURNS HARBOR     1900            74  240/ 19/ 27 1013.2
MICHIGAN CITY    1900            63  250/ 18/ 20   N/A
$$

ABBREVIATIONS USED IN REMARKS
   TC - TEMPERATURE IN CELSIUS
  WCI - WIND CHILL INDEX
   HX - HEAT INDEX
  VSB - VISIBILITY
$$



USA.gov is the U.S. government's official web portal to all federal, state and local government web resources and services.